Tracking 28518 objects as of 1-Mar-2024
HD Live streaming from Space Station
objects crossing your sky now

FLOCK 1C 3

Track FLOCK 1C 3 now!
10-day predictions
FLOCK 1C 3 is classified as:


NORAD ID: 40041
Int'l Code: 2014-033AH
Perigee: 528.7 km
Apogee: 548.4 km
Inclination: 98.1 °
Period: 95.3 minutes
Semi major axis: 6909 km
RCS: Unknown
Launch date: June 19, 2014
Source: United States (US)
Launch site: Orenburg, Russia (OREN)
Your satellite tracking list
Your tracking list is empty




NASA's NSSDC Master Catalog

Two Line Element Set (TLE):
1 40041U 14033AH  24061.45776558  .00027072  00000-0  15909-2 0  9994
2 40041  98.0787  39.2635 0014281 126.4021 233.8527 15.11577818527334
Source of the keplerian elements: AFSPC